Location: Unspecified
(0.0000°N, 0.0000°E)
Time: 02:52:08
(UTC+00:00)

Vanguard 2 Rocket - Pass Details

Date: 21 October 2025
Orbit: 554 x 3288 km, 32.9° (Epoch: 06 November)

Event Time Altitude Azimuth Distance (km) Brightness Sun altitude
Rises 09:44:31 0° 298° (WNW) 6,646 11.0 58.2°
Reaches altitude 10° 09:49:37 10° 294° (WNW) 5,266 10.6 59.4°
Maximum altitude 10:03:19 56° 220° (SW) 1,951 9.3 62.6°
Drops below altitude 10° 10:11:03 10° 142° (SE) 3,077 10.1 64.3°
Sets 10:13:18 0° 137° (SE) 3,780 10.4 64.8°
